Regional Weather Roundup
Issued by NWS Jackson, KY

Home | Current Version | Previous Version | Graphics & Text | Print | Product List | Glossary On
Versions: 1 2 3 4 5 6 7 8 9 10 11 12 13 14 15 16 17 18 19 20 21 22 23 24 25 26 27 28
000
ASUS43 KJKL 222310
RWRJKL

EAST KENTUCKY HOURLY WEATHER ROUNDUP
NATIONAL WEATHER SERVICE JACKSON KY
600 PM EST MON JAN 22 2018

NOTE: "FAIR" INDICATES FEW OR NO CLOUDS BELOW 12,000 FEET WITH
NO SIGNIFICANT WEATHER AND/OR OBSTRUCTIONS TO VISIBILITY.

* THESE REPORTS ARE NOT UNDER NWS QUALITY CONTROL AND MAY NOT
  REPORT WEATHER SUCH AS PRECIPITATION AND FOG.

KYZ079-080-083-085-087-088-110-112-115-119-120-230000
...EASTERN KENTUCKY...

CITY           SKY/WX    TMP DP  RH WIND       PRES   REMARKS
JACKSON        CLOUDY    58  46  64 VRB7      29.79F
LONDON           N/A     57  50  77 S14       29.78F
SOMERSET*      CLOUDY    55  50  82 S16G22    29.78F
MONTICELLO*    CLOUDY    58  52  80 SE14G21   29.76F
WILLIAMSBURG*  CLOUDY    55  54  94 SE10      29.80S
MIDDLESBORO*   CLOUDY    51  51 100 CALM      29.85F
HARLAN APT*    CLOUDY    54  46  76 CALM      29.84F
PIKE CO APT*   CLOUDY    60  43  54 S7        29.83F
BIG SANDY APT* CLOUDY    60  45  57 SE9       29.82F
MOREHEAD APT*    N/A     59  48  67 S8G21     29.76F
ASHLAND*       LGT RAIN  59  49  69 SE7       29.78F
$$

KYZ035-036-041-042-044-050-067-078-099-230000
...CENTRAL KENTUCKY...

CITY           SKY/WX    TMP DP  RH WIND       PRES   REMARKS
MT STERLING*   CLOUDY    57  50  77 S14G20    29.75S
FLEMING/MASON* CLOUDY    56  49  79 S16       29.74S
DANVILLE*      MOCLDY    55  50  82 S16G23    29.71F
LEXINGTON        N/A     58  50  75 S21G35    29.69F
FRANKFORT      MOCLDY    58  49  72 S15       29.66F
LOUISVILLE     CLOUDY    60  52  74 S20G29    29.62F
LEBANON*       MOCLDY    59  50  72 S23G30    29.67F
GLASGOW*       CLOUDY    61  53  74 S16G23    29.66F
BOWLING GREEN    N/A     61  54  77 S22G33    29.64F
$$

KYZ091>093-OHZ055-061-077-WVZ005-015-034-035-042-230000
...SOUTHERN OHIO/WEST VIRGINIA...

CITY           SKY/WX    TMP DP  RH WIND       PRES   REMARKS
COVINGTON      CLOUDY    57  51  80 S17G32    29.64F
COLUMBUS       LGT RAIN  55  49  80 S12       29.71F
DAYTON         CLOUDY    53  49  86 S18G28    29.64F
WILMINGTON     MOCLDY    54  49  83 S16G28    29.68F
HUNTINGTON     LGT RAIN  59  48  67 SE8       29.78F
CHARLESTON     LGT RAIN  62  45  53 S9        29.84F
BECKLEY          N/A     56  38  50 SE10      29.92F
BLUEFIELD      MOCLDY    54  38  54 S10G21    29.96F
LOGAN CO APT*  CLOUDY    61  43  51 S8G15     29.85F
$$

VAZ002-007-008-TNZ017-027-036-066-071-230000
...SOUTHWEST VIRGINIA/EAST TENNESSEE...

CITY           SKY/WX    TMP DP  RH WIND       PRES   REMARKS
WISE*          LGT RAIN  55  43  62 S10       29.90F
JONESVILLE*      N/A     54  50  87 CALM      29.88F
ABINGDON*      LGT RAIN  58  46  63 S3        29.93F
BRISTOL        LGT RAIN  57  49  74 SE6       29.91F
MORRISTOWN*    CLOUDY    59  45  58 SE5       29.85F
SEVIERVILLE*   CLOUDY    64  48  55 CALM      29.84F
KNOXVILLE      CLOUDY    60  52  74 SW5       29.82F
LAFOLLETTE*    CLOUDY    52  52 100 CALM      29.88S
CROSSVILLE     CLOUDY    54  51  90 S13G22    29.81F
NASHVILLE        N/A     62  54  74 S21G33    29.68F
$$

...KEY TO REMARKS...
VSB - VISIBILITY IN MILES
WCI - WIND CHILL INDEX
HX  - HEAT INDEX

$$




USA.gov is the U.S. government's official web portal to all federal, state and local government web resources and services.